Estación Meteorológica de la Universidad de Murcia
Estación Meteorológica de la Universidad de Murcia
Universidad de Murcia
 

Velocidad y dirección del vientoVelocidad y dirección del viento

 

Velocidad: 37,08 km/h a las 13:42:00 del día 15/12/2017
Dirección del viento: 315,5 º NW Rosa de los vientos a las 13:42:00 del día 15/12/2017

Nota:
N (entre 337,6º y 22,5º), NE (entre 22,6º y 67,5º), E (entre 67,6º y 112,5º), SE (entre 112,6º y 157,5º), S (entre 157,6º y 202,5º), SW (entre 202,6º y 247,5º), W (entre 247,5º y 292,5º) y NW (entre 292,6º y 337,5º)

||Velocidad últimos meses|| ----||Dirección del viento||


Velocidad

  • 1 - 37,08 km/h del día 15/12/2017
  • 2 - 22,68 km/h del día 14/12/2017
  • 3 - 18,72 km/h del día 13/12/2017
  • 4 - 36,36 km/h del día 12/12/2017
  • 5 - 55,44 km/h del día 11/12/2017
  • 6 - 28,08 km/h del día 10/12/2017
  • 7 - 32,04 km/h del día 09/12/2017
  • 8 - 28,08 km/h del día 08/12/2017
  • 9 - 18,72 km/h del día 07/12/2017
  • 10 - 20,88 km/h del día 06/12/2017
  • 11 - 20,88 km/h del día 05/12/2017
  • 12 - 21,24 km/h del día 04/12/2017
  • 13 - 39,24 km/h del día 03/12/2017
  • 14 - 58,68 km/h del día 02/12/2017
  • 15 - 55,8 km/h del día 01/12/2017
  • 16 - 24,48 km/h del día 30/11/2017
  • 17 - 19,8 km/h del día 29/11/2017
  • 18 - 16,56 km/h del día 28/11/2017
  • 19 - 18,36 km/h del día 27/11/2017
  • 20 - 20,52 km/h del día 26/11/2017
  • 21 - 14,4 km/h del día 25/11/2017
  • 22 - 16,56 km/h del día 24/11/2017
  • 23 - 17,64 km/h del día 23/11/2017
  • 24 - 16,2 km/h del día 22/11/2017
  • 25 - 17,64 km/h del día 21/11/2017
  • 26 - 16,92 km/h del día 20/11/2017
  • 27 - 16,56 km/h del día 19/11/2017
  • 28 - 15,48 km/h del día 18/11/2017
  • 29 - 15,84 km/h del día 17/11/2017
  • 30 - 25,2 km/h del día 16/11/2017
  • 31 - 16,56 km/h del día 15/11/2017
  • 32 - 30,6 km/h del día 14/11/2017
  • 33 - 54,36 km/h del día 13/11/2017
  • 34 - 31,68 km/h del día 12/11/2017
  • 35 - 32,4 km/h del día 11/11/2017
  • 36 - 27,36 km/h del día 10/11/2017
  • 37 - 35,28 km/h del día 09/11/2017
  • 38 - 30,24 km/h del día 08/11/2017
  • 39 - 30,6 km/h del día 07/11/2017
  • 40 - 38,88 km/h del día 06/11/2017
  • 41 - 42,84 km/h del día 05/11/2017
  • 42 - 30,24 km/h del día 04/11/2017
  • 43 - 16,2 km/h del día 03/11/2017
  • 44 - 21,6 km/h del día 02/11/2017
  • 45 - 23,4 km/h del día 01/11/2017
  • 46 - 19,8 km/h del día 31/10/2017
  • 47 - 20,88 km/h del día 30/10/2017
  • 48 - 21,96 km/h del día 29/10/2017
  • 49 - 22,68 km/h del día 28/10/2017
  • 50 - 20,16 km/h del día 27/10/2017
  • 51 - 19,8 km/h del día 26/10/2017
  • 52 - 23,04 km/h del día 25/10/2017
  • 53 - 18,72 km/h del día 24/10/2017
  • 54 - 18,36 km/h del día 23/10/2017
  • 55 - 30,24 km/h del día 22/10/2017
  • 56 - 19,08 km/h del día 21/10/2017
  • 57 - 40,32 km/h del día 20/10/2017
  • 58 - 35,64 km/h del día 19/10/2017
  • 59 - 18,72 km/h del día 18/10/2017
  • 60 - 20,16 km/h del día 17/10/2017

||Volver al inicio de la página||


Dirección del viento

  • 1 - 1651.88 º 1651,88 del día 31/10/2017
  • 2 - 1620.09 º 1620,09 del día 30/11/2017
  • 3 - 1596.47 º 1596,47 del día 30/10/2017
  • 4 - 1659.39 º 1659,39 del día 29/11/2017
  • 5 - 1915.01 º 1915,01 del día 29/10/2017
  • 6 - 2312.4 º 2312,4 del día 28/11/2017
  • 7 - 1669.41 º 1669,41 del día 28/10/2017
  • 8 - 1545.27 º 1545,27 del día 27/11/2017
  • 9 - 2267.44 º 2267,44 del día 27/10/2017
  • 10 - 1736.09 º 1736,09 del día 26/11/2017
  • 11 - 1795.56 º 1795,56 del día 26/10/2017
  • 12 - 2363.5 º 2363,5 del día 25/11/2017
  • 13 - 1877.82 º 1877,82 del día 25/10/2017
  • 14 - 2148.89 º 2148,89 del día 24/11/2017
  • 15 - 1896.18 º 1896,18 del día 24/10/2017
  • 16 - 2351.86 º 2351,86 del día 23/11/2017
  • 17 - 1623.2 º 1623,2 del día 23/10/2017
  • 18 - 2192.07 º 2192,07 del día 22/11/2017
  • 19 - 1561.45 º 1561,45 del día 22/10/2017
  • 20 - 2172.23 º 2172,23 del día 21/11/2017
  • 21 - 2320.95 º 2320,95 del día 21/10/2017
  • 22 - 1918.09 º 1918,09 del día 20/11/2017
  • 23 - 1984.03 º 1984,03 del día 20/10/2017
  • 24 - 2032.74 º 2032,74 del día 19/11/2017
  • 25 - 2260.03 º 2260,03 del día 19/10/2017
  • 26 - 1958.03 º 1958,03 del día 18/11/2017
  • 27 - 1339.08 º 1339,08 del día 18/10/2017
  • 28 - 2052.57 º 2052,57 del día 17/11/2017
  • 29 - 1782.05 º 1782,05 del día 17/10/2017
  • 30 - 2631.43 º 2631,43 del día 16/12/2017
  • 31 - 1805.51 º 1805,51 del día 16/11/2017
  • 32 - 1435.13 º 1435,13 del día 16/10/2017
  • 33 - 2350.24 º 2350,24 del día 15/12/2017
  • 34 - 2268.55 º 2268,55 del día 15/11/2017
  • 35 - 2441.23 º 2441,23 del día 14/12/2017
  • 36 - 2060.55 º 2060,55 del día 14/11/2017
  • 37 - 2409.21 º 2409,21 del día 13/12/2017
  • 38 - 2245.64 º 2245,64 del día 13/11/2017
  • 39 - 2469.35 º 2469,35 del día 12/12/2017
  • 40 - 2239.41 º 2239,41 del día 12/11/2017
  • 41 - 2117.58 º 2117,58 del día 11/12/2017
  • 42 - 2417.13 º 2417,13 del día 11/11/2017
  • 43 - 2222.75 º 2222,75 del día 10/12/2017
  • 44 - 2475.32 º 2475,32 del día 10/11/2017
  • 45 - 2010.73 º 2010,73 del día 09/12/2017
  • 46 - 2317.63 º 2317,63 del día 09/11/2017
  • 47 - 2374.51 º 2374,51 del día 08/12/2017
  • 48 - 2183.3 º 2183,3 del día 08/11/2017
  • 49 - 2236.28 º 2236,28 del día 07/12/2017
  • 50 - 2009.42 º 2009,42 del día 07/11/2017
  • 51 - 2126.72 º 2126,72 del día 06/12/2017
  • 52 - 2385.47 º 2385,47 del día 06/11/2017
  • 53 - 2076.49 º 2076,49 del día 05/12/2017
  • 54 - 2310.17 º 2310,17 del día 05/11/2017
  • 55 - 2262.91 º 2262,91 del día 04/12/2017
  • 56 - 2367.57 º 2367,57 del día 04/11/2017
  • 57 - 2492.12 º 2492,12 del día 03/12/2017
  • 58 - 1877.79 º 1877,79 del día 03/11/2017
  • 59 - 2465.24 º 2465,24 del día 02/12/2017
  • 60 - 1852.16 º 1852,16 del día 02/11/2017
  • 61 - 2523.25 º 2523,25 del día 01/12/2017
  • 62 - 1670.05 º 1670,05 del día 01/11/2017

|| Temperatura Ambiente|| Humedad relativa|| Precipitación|| Radiación Solar Global y PAR|| Temperatura y humedad del suelo|| Presión atmosférica|| Más información|| Volver a la página principal|| Volver al inicio de la página||


Estación Meteorológica de la Universidad de Murcia
http://estacion.um.es/
Informacion actualizada a: 16/12/2017 a las 06:06:00